Home > Weather > Petersburg > Past weeks

Flag for USA Past Weather in Petersburg, Indiana, USA — Yesterday and Last 2 Weeks

Now
82 °F

Sunny.


Feels Like: 88 °F
Forecast: 74 / 90 °F
Wind: 7 mph from South

Location: Huntingburg Airport

Current Time: Aug 24, 2016 at 9:13:36 PM

Latest Report: Aug 24, 2016 at 8:35 PM


Visibility: 10 mi

Pressure: 30.06 "Hg

Humidity: 74%

Dew Point: 73 °F

Location of PetersburgLocation

Past Weather in Petersburg — Graph

°F

Petersburg Temperature Yesterday

Maximum temperature yesterday: 82 °F (at 3:35 PM)
Minimum temperature yesterday: 57 °F (at 6:55 AM)
Average temperature yesterday: 71 °F

High & Low Weather Summary for the Past Weeks

 TemperatureHumidityPressure
High90 °F (Aug 11, 4:15 PM)100% (Aug 10, 12:55 AM)30.29 "Hg (Aug 10, 12:55 AM)
Low57 °F (Aug 22, 4:55 AM)42% (Aug 22, 3:35 PM)29.72 "Hg (Aug 20, 4:35 PM)
Average76 °F83%30.04 "Hg
* Reported Aug 9 8:15 PM — Aug 24 8:15 PM, Petersburg, Weather by CustomWeather, © 2016

Note: Actual official high and low records may vary slightly from our data, if they occured in-between our weather recording intervals... More about our weather records

Advertising

Petersburg Weather History for the Previous 24 Hours

Scroll right to see more
 ConditionsComfort  
Time TempWeatherWind HumidityBarometerVisibility
8:15 PM
Wed, Aug 24
84 °FSunny.7 mph70%30.06 "Hg10 mi
7:35 PM86 °FSunny.12 mph66%30.05 "Hg10 mi
7:15 PM88 °FSunny.10 mph62%30.05 "Hg10 mi
6:55 PM88 °FSunny.12 mph62%30.05 "Hg10 mi
6:35 PM88 °FPassing clouds.13 mph66%30.06 "Hg10 mi
6:15 PM88 °FScattered clouds.13 mph62%30.06 "Hg10 mi
5:55 PM88 °FSunny.12 mph62%30.06 "Hg10 mi
5:35 PM86 °FSunny.12 mph66%30.07 "Hg10 mi
5:15 PM88 °FPassing clouds.16 mph62%30.07 "Hg10 mi
4:55 PM90 °FPassing clouds.15 mph63%30.07 "Hg10 mi
4:35 PM90 °FScattered clouds.13 mph63%30.07 "Hg10 mi
4:15 PM90 °FBroken clouds.12 mph63%30.07 "Hg10 mi
3:55 PM90 °FPassing clouds.12 mph63%30.08 "Hg10 mi
3:35 PM90 °FPassing clouds.15 mph63%30.08 "Hg10 mi
3:15 PM88 °FBroken clouds.12 mph62%30.09 "Hg10 mi
2:55 PM88 °FBroken clouds.15 mph62%30.09 "Hg10 mi
2:35 PM88 °FScattered clouds.16 mph66%30.09 "Hg10 mi
2:15 PM88 °FScattered clouds.16 mph66%30.10 "Hg10 mi
1:55 PM88 °FPartly sunny.14 mph66%30.11 "Hg10 mi
1:35 PM88 °FScattered clouds.14 mph66%30.12 "Hg10 mi
1:15 PM88 °FScattered clouds.17 mph66%30.13 "Hg10 mi
12:55 PM86 °FSunny.15 mph70%30.14 "Hg10 mi
12:35 PM86 °FSunny.13 mph70%30.14 "Hg10 mi
12:15 PM84 °FPassing clouds.13 mph74%30.15 "Hg10 mi
11:55 AM84 °FPassing clouds.13 mph70%30.15 "Hg10 mi
11:35 AM84 °FSunny.16 mph70%30.16 "Hg10 mi
11:15 AM82 °FSunny.10 mph74%30.15 "Hg10 mi
10:55 AM82 °FSunny.10 mph74%30.16 "Hg10 mi
10:35 AM81 °FSunny.9 mph74%30.16 "Hg10 mi
10:15 AM81 °FSunny.10 mph74%30.16 "Hg10 mi
9:55 AM79 °FSunny.9 mph79%30.16 "Hg10 mi
9:35 AM77 °FSunny.8 mph79%30.17 "Hg10 mi
9:15 AM75 °FSunny.7 mph83%30.17 "Hg10 mi
8:55 AM73 °FSunny.6 mph83%30.16 "Hg10 mi
8:35 AM72 °FPassing clouds.5 mph88%30.16 "Hg10 mi
8:15 AM72 °FSunny.5 mph83%30.16 "Hg10 mi
7:55 AM70 °FClear.5 mph88%30.16 "Hg10 mi
7:35 AM70 °FClear.6 mph88%30.16 "Hg10 mi
7:15 AM70 °FClear.6 mph83%30.16 "Hg10 mi
6:55 AM70 °FPassing clouds.5 mph83%30.16 "Hg10 mi
6:35 AM70 °FPassing clouds.5 mph83%30.16 "Hg10 mi
6:15 AM70 °FPassing clouds.6 mph83%30.15 "Hg10 mi
5:55 AM70 °FOvercast.3 mph83%30.16 "Hg10 mi
5:35 AM70 °FOvercast.3 mph83%30.16 "Hg10 mi
5:15 AM70 °FPassing clouds.5 mph78%30.16 "Hg10 mi
4:55 AM70 °FPassing clouds.3 mph78%30.16 "Hg10 mi
4:35 AM70 °FClear.3 mph78%30.15 "Hg10 mi
4:15 AM70 °FClear.5 mph78%30.16 "Hg10 mi
3:55 AM70 °FClear.6 mph78%30.16 "Hg10 mi
3:35 AM70 °FClear.3 mph78%30.16 "Hg10 mi
3:15 AM70 °FClear.3 mph78%30.16 "Hg10 mi
2:55 AM70 °FClear.3 mph78%30.16 "Hg10 mi
2:35 AM70 °FClear.6 mph83%30.16 "Hg10 mi
2:15 AM70 °FClear.3 mph83%30.17 "Hg10 mi
1:55 AM72 °FClear.3 mph78%30.17 "Hg10 mi
1:35 AM72 °FClear.3 mph78%30.18 "Hg10 mi
1:15 AM70 °FClear.5 mph83%30.18 "Hg10 mi
12:55 AM70 °FClear.5 mph83%30.17 "Hg10 mi
12:35 AM70 °FClear.5 mph83%30.17 "Hg10 mi
12:15 AM70 °FClear.3 mph83%30.18 "Hg10 mi
11:55 PM
Tue, Aug 23
72 °FClear.3 mph78%30.18 "Hg10 mi
11:35 PM70 °FClear.6 mph83%30.18 "Hg10 mi
11:15 PM70 °FClear.3 mph83%30.18 "Hg10 mi
10:55 PM72 °FClear.5 mph78%30.18 "Hg10 mi
10:35 PM72 °FClear.7 mph78%30.18 "Hg10 mi
10:15 PM72 °FClear.6 mph78%30.18 "Hg10 mi
9:55 PM72 °FClear.3 mph78%30.18 "Hg10 mi
9:35 PM73 °FClear.5 mph74%30.18 "Hg10 mi
9:15 PM73 °FSunny.5 mph74%30.18 "Hg10 mi
Weather by CustomWeather, © 2016

See weather overviewHow to use our weather pages